77.6°F
Current conditions from King Hill
Updated every 5 minutes
 
  Saturday May 30, 2015

Station Historical Data
 
Daily Summary for May 30, 2015 Units:  English    Metric   Both
« Previous Day
Next Day »
Daily Weekly Monthly Yearly Custom
  Current: High: Low: Average:
Temperature: 77.6 °F 77.8 °F 59.8 °F 68.1 °F
Dew Point: 67.5 °F 68.1 °F 55.6 °F 60.2 °F
Humidity: 71% 86% 70% 76%
Wind Speed: 4.0mph 11.0mph 0.0mph 4.6mph
Wind Gust: 19.0mph 25.0mph - -
WindSSW - - SSW
Pressure: 29.92 in 30.07 in 29.92 in -
Precipitation: 0.00 in      
Historical Graphs
 
 
Tabular Data for May 30, 2015
Time Temperature Dew Point Pressure Wind Wind Speed Wind Gust Humidity Daily Rainfall
00:01 61.1 °F 55.9 °F 30.07 in Calm     83% 0.00 in
00:06 60.8 °F 55.6 °F 30.07 in Calm   1.0 mph 83% 0.00 in
00:10 60.5 °F 55.6 °F 30.07 in Calm   1.0 mph 84% 0.00 in
00:15 60.2 °F 55.7 °F 30.07 in Calm     85% 0.00 in
00:20 59.8 °F 55.6 °F 30.07 in Calm     86% 0.00 in
00:26 59.8 °F 55.6 °F 30.06 in Calm     86% 0.00 in
00:30 59.8 °F 55.6 °F 30.06 in Calm   1.0 mph 86% 0.00 in
00:35 60.2 °F 56.0 °F 30.06 in SW 1.0 mph 7.0 mph 86% 0.00 in
00:40 60.8 °F 56.3 °F 30.06 in SSW 1.0 mph 7.0 mph 85% 0.00 in
00:46 61.2 °F 56.3 °F 30.05 in Calm   6.0 mph 84% 0.00 in
00:50 61.6 °F 56.4 °F 30.05 in SSW 1.0 mph 7.0 mph 83% 0.00 in
00:55 62.0 °F 56.4 °F 30.05 in Calm   7.0 mph 82% 0.00 in
01:00 62.2 °F 56.3 °F 30.05 in SSW 1.0 mph 5.0 mph 81% 0.00 in
01:05 62.5 °F 56.6 °F 30.05 in Calm   6.0 mph 81% 0.00 in
01:10 62.6 °F 56.3 °F 30.05 in SSW 1.0 mph 6.0 mph 80% 0.00 in
01:16 62.7 °F 56.4 °F 30.05 in SSW 1.0 mph 6.0 mph 80% 0.00 in
01:20 62.8 °F 56.5 °F 30.04 in Calm   6.0 mph 80% 0.00 in
01:25 62.7 °F 56.4 °F 30.04 in Calm   5.0 mph 80% 0.00 in
01:30 62.6 °F 56.3 °F 30.05 in SSW 1.0 mph 5.0 mph 80% 0.00 in
01:36 62.5 °F 56.6 °F 30.04 in Calm   5.0 mph 81% 0.00 in
01:40 62.3 °F 56.4 °F 30.04 in SSW 2.0 mph 6.0 mph 81% 0.00 in
01:45 62.5 °F 56.6 °F 30.04 in SSW 2.0 mph 7.0 mph 81% 0.00 in
01:50 62.7 °F 56.8 °F 30.04 in SSW 1.0 mph 7.0 mph 81% 0.00 in
01:55 63.0 °F 56.7 °F 30.04 in SW 2.0 mph 7.0 mph 80% 0.00 in
02:00 63.1 °F 56.8 °F 30.04 in SSW 3.0 mph 8.0 mph 80% 0.00 in
02:05 63.3 °F 57.0 °F 30.04 in SW 2.0 mph 8.0 mph 80% 0.00 in
02:10 63.3 °F 57.0 °F 30.04 in SW 1.0 mph 8.0 mph 80% 0.00 in
02:15 63.3 °F 57.0 °F 30.03 in SW 1.0 mph 8.0 mph 80% 0.00 in
02:20 63.3 °F 57.0 °F 30.03 in SW 1.0 mph 7.0 mph 80% 0.00 in
02:25 63.3 °F 57.0 °F 30.03 in Calm   7.0 mph 80% 0.00 in
02:30 63.3 °F 57.0 °F 30.03 in SSW 3.0 mph 8.0 mph 80% 0.00 in
02:35 63.6 °F 57.3 °F 30.03 in SSW 3.0 mph 11.0 mph 80% 0.00 in
02:40 64.0 °F 57.4 °F 30.03 in SSW 4.0 mph 11.0 mph 79% 0.00 in
02:45 64.4 °F 57.4 °F 30.02 in SSW 3.0 mph 10.0 mph 78% 0.00 in
02:50 64.7 °F 57.3 °F 30.02 in SSW 2.0 mph 9.0 mph 77% 0.00 in
02:55 65.0 °F 57.6 °F 30.02 in SSW 3.0 mph 12.0 mph 77% 0.00 in
03:00 65.3 °F 57.5 °F 30.02 in Calm   12.0 mph 76% 0.00 in
03:05 65.3 °F 57.9 °F 30.02 in SSW 1.0 mph 9.0 mph 77% 0.00 in
03:10 65.3 °F 57.5 °F 30.01 in SSW 1.0 mph 10.0 mph 76% 0.00 in
03:15 65.3 °F 57.5 °F 30.01 in SSW 3.0 mph 10.0 mph 76% 0.00 in
03:20 65.4 °F 57.6 °F 30.01 in South 2.0 mph 9.0 mph 76% 0.00 in
03:25 65.4 °F 57.6 °F 30.01 in SSW 4.0 mph 12.0 mph 76% 0.00 in
03:30 65.3 °F 57.5 °F 30.01 in Calm   12.0 mph 76% 0.00 in
03:35 65.2 °F 57.5 °F 30.01 in SSW 4.0 mph 12.0 mph 76% 0.00 in
03:41 65.2 °F 57.5 °F 30.00 in South 2.0 mph 12.0 mph 76% 0.00 in
04:36 66.0 °F 58.2 °F 30.00 in SW 3.0 mph 14.0 mph 76% 0.00 in
04:41 66.1 °F 58.3 °F 30.00 in SW 5.0 mph 15.0 mph 76% 0.00 in
04:46 66.1 °F 58.3 °F 30.00 in SSW 6.0 mph 15.0 mph 76% 0.00 in
04:51 66.1 °F 58.3 °F 30.00 in SSW 5.0 mph 22.0 mph 76% 0.00 in
04:56 66.1 °F 58.3 °F 30.00 in SSW 8.0 mph 22.0 mph 76% 0.00 in
05:01 66.3 °F 58.1 °F 30.00 in SSW 4.0 mph 22.0 mph 75% 0.00 in
05:06 66.3 °F 58.1 °F 30.00 in SSW 6.0 mph 22.0 mph 75% 0.00 in
05:11 66.3 °F 58.1 °F 29.99 in SSW 4.0 mph 16.0 mph 75% 0.00 in
05:16 66.3 °F 58.1 °F 30.00 in SW 6.0 mph 18.0 mph 75% 0.00 in
05:21 66.2 °F 58.1 °F 30.00 in SW 1.0 mph 18.0 mph 75% 0.00 in
05:26 66.0 °F 58.2 °F 30.00 in SSW 3.0 mph 13.0 mph 76% 0.00 in
05:31 66.1 °F 58.3 °F 29.99 in SSW 3.0 mph 14.0 mph 76% 0.00 in
05:36 66.1 °F 58.3 °F 30.00 in SSW 4.0 mph 14.0 mph 76% 0.00 in
05:41 66.1 °F 58.3 °F 29.99 in SSW 4.0 mph 14.0 mph 76% 0.00 in
05:46 66.1 °F 58.0 °F 29.99 in SSW 5.0 mph 15.0 mph 75% 0.00 in
05:51 66.4 °F 58.2 °F 29.99 in SSW 4.0 mph 15.0 mph 75% 0.00 in
05:56 66.6 °F 58.4 °F 29.99 in SW 5.0 mph 15.0 mph 75% 0.00 in
06:01 66.7 °F 58.5 °F 29.99 in SW 4.0 mph 15.0 mph 75% 0.00 in
06:06 66.7 °F 58.5 °F 29.99 in SW 5.0 mph 13.0 mph 75% 0.00 in
06:11 66.8 °F 58.3 °F 29.99 in SSW 8.0 mph 19.0 mph 74% 0.00 in
06:16 66.8 °F 58.6 °F 29.99 in SSW 3.0 mph 19.0 mph 75% 0.00 in
06:21 66.8 °F 58.6 °F 29.99 in Calm   16.0 mph 75% 0.00 in
06:26 66.8 °F 58.3 °F 29.99 in SSW 7.0 mph 15.0 mph 74% 0.00 in
06:31 66.8 °F 58.3 °F 29.99 in SSW 5.0 mph 18.0 mph 74% 0.00 in
06:36 66.9 °F 58.7 °F 29.99 in SW 3.0 mph 18.0 mph 75% 0.00 in
06:41 66.8 °F 58.6 °F 29.99 in SSW 2.0 mph 14.0 mph 75% 0.00 in
06:46 66.9 °F 58.7 °F 29.99 in SW 4.0 mph 21.0 mph 75% 0.00 in
06:51 66.9 °F 58.7 °F 29.99 in SSW 5.0 mph 21.0 mph 75% 0.00 in
06:56 67.1 °F 58.9 °F 29.99 in SSW 5.0 mph 16.0 mph 75% 0.00 in
07:01 67.2 °F 58.6 °F 29.99 in SSW 5.0 mph 16.0 mph 74% 0.00 in
07:06 67.2 °F 59.0 °F 29.98 in SSW 1.0 mph 13.0 mph 75% 0.00 in
07:11 67.2 °F 58.6 °F 29.99 in SSW 4.0 mph 20.0 mph 74% 0.00 in
07:16 67.4 °F 58.8 °F 29.98 in South 3.0 mph 20.0 mph 74% 0.00 in
07:21 67.4 °F 58.8 °F 29.99 in SSE 4.0 mph 18.0 mph 74% 0.00 in
07:26 67.5 °F 58.9 °F 29.99 in SSW 6.0 mph 18.0 mph 74% 0.00 in
07:31 67.7 °F 59.1 °F 29.98 in SSW 6.0 mph 18.0 mph 74% 0.00 in
07:36 68.1 °F 59.5 °F 29.98 in SSW 5.0 mph 16.0 mph 74% 0.00 in
07:41 68.6 °F 59.6 °F 29.98 in SSW 8.0 mph 16.0 mph 73% 0.00 in
07:46 68.7 °F 60.1 °F 29.98 in SSW 8.0 mph 16.0 mph 74% 0.00 in
07:51 68.7 °F 60.1 °F 29.98 in SSW 4.0 mph 24.0 mph 74% 0.00 in
07:56 68.8 °F 60.2 °F 29.98 in SSW 6.0 mph 24.0 mph 74% 0.00 in
08:01 69.4 °F 60.8 °F 29.98 in SSW 7.0 mph 22.0 mph 74% 0.00 in
08:06 70.1 °F 61.1 °F 29.98 in SSW 4.0 mph 22.0 mph 73% 0.00 in
08:11 70.4 °F 60.6 °F 29.98 in SW 9.0 mph 21.0 mph 71% 0.00 in
08:16 70.4 °F 61.0 °F 29.98 in SSW 3.0 mph 21.0 mph 72% 0.00 in
08:21 70.3 °F 60.9 °F 29.98 in SSW 4.0 mph 16.0 mph 72% 0.00 in
08:26 69.4 °F 60.8 °F 29.98 in SSW 5.0 mph 21.0 mph 74% 0.00 in
08:31 69.4 °F 60.8 °F 29.98 in SSW 2.0 mph 21.0 mph 74% 0.00 in
08:36 69.3 °F 61.0 °F 29.98 in SSW 6.0 mph 18.0 mph 75% 0.00 in
08:41 69.1 °F 60.9 °F 29.98 in SSW 6.0 mph 18.0 mph 75% 0.00 in
08:46 69.3 °F 61.4 °F 29.98 in SSW 6.0 mph 18.0 mph 76% 0.00 in
08:51 69.5 °F 61.6 °F 29.98 in SW 4.0 mph 18.0 mph 76% 0.00 in
08:56 69.8 °F 61.5 °F 29.97 in SSW 7.0 mph 15.0 mph 75% 0.00 in
09:01 70.0 °F 61.7 °F 29.98 in SSW 6.0 mph 15.0 mph 75% 0.00 in
09:06 70.1 °F 61.4 °F 29.98 in SSW 11.0 mph 18.0 mph 74% 0.00 in
09:11 70.2 °F 61.9 °F 29.97 in SSW 7.0 mph 18.0 mph 75% 0.00 in
09:16 70.3 °F 62.0 °F 29.97 in SSW 6.0 mph 20.0 mph 75% 0.00 in
09:21 70.4 °F 62.1 °F 29.97 in South 4.0 mph 20.0 mph 75% 0.00 in
09:26 70.8 °F 63.2 °F 29.97 in SSW 6.0 mph 19.0 mph 77% 0.00 in
09:31 71.6 °F 64.4 °F 29.97 in SSW 3.0 mph 19.0 mph 78% 0.00 in
09:36 72.3 °F 63.2 °F 29.96 in SSW 6.0 mph 20.0 mph 73% 0.00 in
09:41 72.7 °F 64.3 °F 29.97 in SW 3.0 mph 20.0 mph 75% 0.00 in
09:46 73.3 °F 64.1 °F 29.97 in SSW 8.0 mph 18.0 mph 73% 0.00 in
09:51 73.3 °F 64.1 °F 29.96 in SW 7.0 mph 18.0 mph 73% 0.00 in
09:56 72.9 °F 64.1 °F 29.96 in SW 4.0 mph 16.0 mph 74% 0.00 in
10:01 73.3 °F 65.7 °F 29.96 in SSW 1.0 mph 16.0 mph 77% 0.00 in
10:06 74.1 °F 64.9 °F 29.95 in SSW 7.0 mph 15.0 mph 73% 0.00 in
10:11 74.4 °F 64.8 °F 29.95 in SW 3.0 mph 15.0 mph 72% 0.00 in
10:16 74.7 °F 65.5 °F 29.96 in SW 6.0 mph 16.0 mph 73% 0.00 in
10:21 74.8 °F 64.8 °F 29.95 in SSW 8.0 mph 16.0 mph 71% 0.00 in
10:26 74.6 °F 64.6 °F 29.95 in SSW 8.0 mph 20.0 mph 71% 0.00 in
10:31 74.8 °F 65.2 °F 29.95 in SW 5.0 mph 20.0 mph 72% 0.00 in
10:36 74.9 °F 66.1 °F 29.95 in SW 5.0 mph 19.0 mph 74% 0.00 in
10:41 75.2 °F 66.4 °F 29.95 in WSW 6.0 mph 19.0 mph 74% 0.00 in
10:46 74.9 °F 65.3 °F 29.95 in SW 9.0 mph 18.0 mph 72% 0.00 in
10:51 74.8 °F 65.2 °F 29.95 in SSW 5.0 mph 25.0 mph 72% 0.00 in
10:56 75.1 °F 65.5 °F 29.95 in SSW 8.0 mph 25.0 mph 72% 0.00 in
11:01 75.2 °F 65.2 °F 29.95 in SW 7.0 mph 22.0 mph 71% 0.00 in
11:06 75.2 °F 65.6 °F 29.95 in SW 7.0 mph 22.0 mph 72% 0.00 in
11:11 75.3 °F 65.3 °F 29.95 in SW 10.0 mph 22.0 mph 71% 0.00 in
11:16 75.0 °F 65.4 °F 29.95 in SW 9.0 mph 21.0 mph 72% 0.00 in
11:21 75.2 °F 66.0 °F 29.94 in SSW 6.0 mph 18.0 mph 73% 0.00 in
11:26 75.5 °F 65.9 °F 29.94 in SW 9.0 mph 19.0 mph 72% 0.00 in
11:31 76.0 °F 66.7 °F 29.94 in SW 8.0 mph 19.0 mph 73% 0.00 in
11:36 76.2 °F 66.1 °F 29.94 in SW 2.0 mph 15.0 mph 71% 0.00 in
11:40 76.7 °F 66.6 °F 29.94 in South 6.0 mph 20.0 mph 71% 0.00 in
11:46 77.1 °F 67.4 °F 29.94 in WSW 6.0 mph 20.0 mph 72% 0.00 in
11:51 77.3 °F 67.6 °F 29.93 in SW 7.0 mph 16.0 mph 72% 0.00 in
11:56 77.5 °F 67.4 °F 29.93 in SSW 6.0 mph 18.0 mph 71% 0.00 in
12:00 77.5 °F 67.8 °F 29.93 in SSW 6.0 mph 19.0 mph 72% 0.00 in
12:06 77.6 °F 67.5 °F 29.93 in SW 4.0 mph 19.0 mph 71% 0.00 in
12:11 77.7 °F 67.6 °F 29.92 in SSW 5.0 mph 15.0 mph 71% 0.00 in
12:16 77.8 °F 68.1 °F 29.92 in SSW 6.0 mph 20.0 mph 72% 0.00 in
12:20 77.6 °F 67.1 °F 29.92 in SSW 6.0 mph 20.0 mph 70% 0.00 in
12:26 77.6 °F 67.5 °F 29.92 in SSW 4.0 mph 19.0 mph 71% 0.00 in
Westford Weather
Compliments of Weather Underground

 
 
Current Radar Loop:

Copyright © WestfordWeather.net 2007-2015. All rights reserved.